Torna al catalogo

ATLAS 5 CENTAUR DEB

LostHEO
NORAD 49375·DEBRIS·🇺🇸 United States

Lanciato Oct 17, 2018 da Cape Canaveral Space Force Station

Loading…

Prossimi Passaggi (prossime 24 ore)

TLE

ObsoletoSource: Space-Track

Epoca: Jun 11, 2023, 06:01 UTC

1 49375U 18079GC  23162.25112128 -.00000099  00000-0  00000-0 0  9998
2 49375  11.7551 130.2212 5206417 124.6455 295.9346  1.72365749 11333

Traccia ATLAS 5 CENTAUR DEB in tempo reale con AllMySat

Download on the App Store